Year,Month,Day,Hour,Minute,Value (Times are PST for temperature in C)
2007,05,30,00,00,14.10
2007,05,30,00,01,14.10
2007,05,30,00,02,14.10
2007,05,30,00,03,14.10
2007,05,30,00,04,14.20
2007,05,30,00,05,14.20
2007,05,30,00,06,14.30
2007,05,30,00,07,14.40
2007,05,30,00,08,14.40
2007,05,30,00,09,14.40
2007,05,30,00,10,14.40
2007,05,30,00,11,14.50
2007,05,30,00,12,14.50
2007,05,30,00,13,14.50
2007,05,30,00,14,14.60
2007,05,30,00,15,14.60
2007,05,30,00,16,14.60
2007,05,30,00,17,14.70
2007,05,30,00,18,14.70
2007,05,30,00,19,14.70
2007,05,30,00,20,14.60
2007,05,30,00,21,14.60
2007,05,30,00,22,14.60
2007,05,30,00,23,14.60
2007,05,30,00,24,14.50
2007,05,30,00,25,14.50
2007,05,30,00,26,14.40
2007,05,30,00,27,14.40
2007,05,30,00,28,14.40
2007,05,30,00,29,14.40
2007,05,30,00,30,14.30
2007,05,30,00,31,14.30
2007,05,30,00,32,14.30
2007,05,30,00,33,14.30
2007,05,30,00,34,14.30
2007,05,30,00,35,14.20
2007,05,30,00,36,14.20
2007,05,30,00,37,14.20
2007,05,30,00,38,14.10
2007,05,30,00,39,14.10
2007,05,30,00,40,14.10
2007,05,30,00,41,14.10
2007,05,30,00,42,14.10
2007,05,30,00,43,14.00
2007,05,30,00,44,14.10
2007,05,30,00,45,14.10
2007,05,30,00,46,14.10
2007,05,30,00,47,14.00
2007,05,30,00,48,14.00
2007,05,30,00,49,14.00
2007,05,30,00,50,14.00
2007,05,30,00,51,14.00
2007,05,30,00,52,14.00
2007,05,30,00,53,14.00
2007,05,30,00,54,14.00
2007,05,30,00,55,13.90
2007,05,30,00,56,13.90
2007,05,30,00,57,13.90
2007,05,30,00,58,13.90
2007,05,30,00,59,13.90
2007,05,30,01,00,14.00
2007,05,30,01,01,14.00
2007,05,30,01,02,14.00
2007,05,30,01,03,14.00
2007,05,30,01,04,14.00
2007,05,30,01,05,14.00
2007,05,30,01,06,14.00
2007,05,30,01,07,13.90
2007,05,30,01,08,13.90
2007,05,30,01,09,13.90
2007,05,30,01,10,13.90
2007,05,30,01,11,13.90
2007,05,30,01,12,13.90
2007,05,30,01,13,13.90
2007,05,30,01,14,13.80
2007,05,30,01,15,13.80
2007,05,30,01,16,13.80
2007,05,30,01,17,13.80
2007,05,30,01,18,13.80
2007,05,30,01,19,13.80
2007,05,30,01,20,13.80
2007,05,30,01,21,13.80
2007,05,30,01,22,13.70
2007,05,30,01,23,13.70
2007,05,30,01,24,13.60
2007,05,30,01,25,13.60
2007,05,30,01,26,13.60
2007,05,30,01,27,13.50
2007,05,30,01,28,13.50
2007,05,30,01,29,13.40
2007,05,30,01,30,13.40
2007,05,30,01,31,13.40
2007,05,30,01,32,13.40
2007,05,30,01,33,13.30
2007,05,30,01,34,13.30
2007,05,30,01,35,13.30
2007,05,30,01,36,13.30
2007,05,30,01,37,13.30
2007,05,30,01,38,13.30
2007,05,30,01,39,13.30
2007,05,30,01,40,13.30
2007,05,30,01,41,13.30
2007,05,30,01,42,13.30
2007,05,30,01,43,13.30
2007,05,30,01,44,13.30
2007,05,30,01,45,13.20
2007,05,30,01,46,13.20
2007,05,30,01,47,13.20
2007,05,30,01,48,13.20
2007,05,30,01,49,13.20
2007,05,30,01,50,13.20
2007,05,30,01,51,13.20
2007,05,30,01,52,13.20
2007,05,30,01,53,13.20
2007,05,30,01,54,13.10
2007,05,30,01,55,13.10
2007,05,30,01,56,13.10
2007,05,30,01,57,13.10
2007,05,30,01,58,13.10
2007,05,30,01,59,13.10
2007,05,30,02,00,13.10
2007,05,30,02,01,13.10
2007,05,30,02,02,13.10
2007,05,30,02,03,13.10
2007,05,30,02,04,13.10
2007,05,30,02,05,13.10
2007,05,30,02,06,13.10
2007,05,30,02,07,13.10
2007,05,30,02,08,13.10
2007,05,30,02,09,13.20
2007,05,30,02,10,13.20
2007,05,30,02,11,13.20
2007,05,30,02,12,13.10
2007,05,30,02,13,13.10
2007,05,30,02,14,13.10
2007,05,30,02,15,13.00
2007,05,30,02,16,13.00
2007,05,30,02,17,13.00
2007,05,30,02,18,12.90
2007,05,30,02,19,12.90
2007,05,30,02,20,12.90
2007,05,30,02,21,12.90
2007,05,30,02,22,12.80
2007,05,30,02,23,12.80
2007,05,30,02,24,12.80
2007,05,30,02,25,12.70
2007,05,30,02,26,12.70
2007,05,30,02,27,12.70
2007,05,30,02,28,12.70
2007,05,30,02,29,12.70
2007,05,30,02,30,12.70
2007,05,30,02,31,12.70
2007,05,30,02,32,12.60
2007,05,30,02,33,12.60
2007,05,30,02,34,12.60
2007,05,30,02,35,12.50
2007,05,30,02,36,12.50
2007,05,30,02,37,12.40
2007,05,30,02,38,12.40
2007,05,30,02,39,12.30
2007,05,30,02,40,12.30
2007,05,30,02,41,12.30
2007,05,30,02,42,12.30
2007,05,30,02,43,12.30
2007,05,30,02,44,12.30
2007,05,30,02,45,12.30
2007,05,30,02,46,12.30
2007,05,30,02,47,12.30
2007,05,30,02,48,12.30
2007,05,30,02,49,12.30
2007,05,30,02,50,12.20
2007,05,30,02,51,12.20
2007,05,30,02,52,12.20
2007,05,30,02,53,12.20
2007,05,30,02,54,12.20
2007,05,30,02,55,12.20
2007,05,30,02,56,12.20
2007,05,30,02,57,12.20
2007,05,30,02,58,12.20
2007,05,30,02,59,12.20
2007,05,30,03,00,12.20
2007,05,30,03,01,12.20
2007,05,30,03,02,12.20
2007,05,30,03,03,12.10
2007,05,30,03,04,12.10
2007,05,30,03,05,12.10
2007,05,30,03,06,12.10
2007,05,30,03,07,12.10
2007,05,30,03,08,12.00
2007,05,30,03,09,12.00
2007,05,30,03,10,12.00
2007,05,30,03,11,11.90
2007,05,30,03,12,11.90
2007,05,30,03,13,11.90
2007,05,30,03,14,11.90
2007,05,30,03,15,11.90
2007,05,30,03,16,12.00
2007,05,30,03,17,12.00
2007,05,30,03,18,12.00
2007,05,30,03,19,12.10
2007,05,30,03,20,12.10
2007,05,30,03,21,12.10
2007,05,30,03,22,12.20
2007,05,30,03,23,12.20
2007,05,30,03,24,12.20
2007,05,30,03,25,12.30
2007,05,30,03,26,12.30
2007,05,30,03,27,12.40
2007,05,30,03,28,12.40
2007,05,30,03,29,12.40
2007,05,30,03,30,12.50
2007,05,30,03,31,12.60
2007,05,30,03,32,12.80
2007,05,30,03,33,12.80
2007,05,30,03,34,12.90
2007,05,30,03,35,13.10
2007,05,30,03,36,13.20
2007,05,30,03,37,13.30
2007,05,30,03,38,13.40
2007,05,30,03,39,13.50
2007,05,30,03,40,13.50
2007,05,30,03,41,13.60
2007,05,30,03,42,13.60
2007,05,30,03,43,13.70
2007,05,30,03,44,13.60
2007,05,30,03,45,13.60
2007,05,30,03,46,13.60
2007,05,30,03,47,13.50
2007,05,30,03,48,13.40
2007,05,30,03,49,13.40
2007,05,30,03,50,13.30
2007,05,30,03,51,13.30
2007,05,30,03,52,13.20
2007,05,30,03,53,13.20
2007,05,30,03,54,13.10
2007,05,30,03,55,13.10
2007,05,30,03,56,13.10
2007,05,30,03,57,13.10
2007,05,30,03,58,13.10
2007,05,30,03,59,13.10
2007,05,30,04,00,13.20
2007,05,30,04,01,13.20
2007,05,30,04,02,13.20
2007,05,30,04,03,13.20
2007,05,30,04,04,13.20
2007,05,30,04,05,13.20
2007,05,30,04,06,13.20
2007,05,30,04,07,13.30
2007,05,30,04,08,13.30
2007,05,30,04,09,13.30
2007,05,30,04,10,13.30
2007,05,30,04,11,13.30
2007,05,30,04,12,13.30
2007,05,30,04,13,13.30
2007,05,30,04,14,13.20
2007,05,30,04,15,13.20
2007,05,30,04,16,13.10
2007,05,30,04,17,13.10
2007,05,30,04,18,13.10
2007,05,30,04,19,13.10
2007,05,30,04,20,13.10
2007,05,30,04,21,13.00
2007,05,30,04,22,13.00
2007,05,30,04,23,13.00
2007,05,30,04,24,13.00
2007,05,30,04,25,12.90
2007,05,30,04,26,12.90
2007,05,30,04,27,12.90
2007,05,30,04,28,12.90
2007,05,30,04,29,12.80
2007,05,30,04,30,12.80
2007,05,30,04,31,12.80
2007,05,30,04,32,12.80
2007,05,30,04,33,12.80
2007,05,30,04,34,12.70
2007,05,30,04,35,12.70
2007,05,30,04,36,12.70
2007,05,30,04,37,12.60
2007,05,30,04,38,12.60
2007,05,30,04,39,12.60
2007,05,30,04,40,12.60
2007,05,30,04,41,12.60
2007,05,30,04,42,12.60
2007,05,30,04,43,12.60
2007,05,30,04,44,12.70
2007,05,30,04,45,12.70
2007,05,30,04,46,12.80
2007,05,30,04,47,12.80
2007,05,30,04,48,12.80
2007,05,30,04,49,12.90
2007,05,30,04,50,13.00
2007,05,30,04,51,13.10
2007,05,30,04,52,13.10
2007,05,30,04,53,13.20
2007,05,30,04,54,13.20
2007,05,30,04,55,13.20
2007,05,30,04,56,13.20
2007,05,30,04,57,13.20
2007,05,30,04,58,13.20
2007,05,30,04,59,13.20
2007,05,30,05,00,13.20
2007,05,30,05,01,13.10
2007,05,30,05,02,13.10
2007,05,30,05,03,13.10
2007,05,30,05,04,13.10
2007,05,30,05,05,13.10
2007,05,30,05,06,13.10
2007,05,30,05,07,13.20
2007,05,30,05,08,13.20
2007,05,30,05,09,13.30
2007,05,30,05,10,13.30
2007,05,30,05,11,13.30
2007,05,30,05,12,13.30
2007,05,30,05,13,13.30
2007,05,30,05,14,13.30
2007,05,30,05,15,13.30
2007,05,30,05,16,13.30
2007,05,30,05,17,13.20
2007,05,30,05,18,13.20
2007,05,30,05,19,13.20
2007,05,30,05,20,13.20
2007,05,30,05,21,13.20
2007,05,30,05,22,13.20
2007,05,30,05,23,13.20
2007,05,30,05,24,13.20
2007,05,30,05,25,13.20
2007,05,30,05,26,13.20
2007,05,30,05,27,13.20
2007,05,30,05,28,13.20
2007,05,30,05,29,13.20
2007,05,30,05,30,13.20
2007,05,30,05,31,13.20
2007,05,30,05,32,13.20
2007,05,30,05,33,13.20
2007,05,30,05,34,13.20
2007,05,30,05,35,13.20
2007,05,30,05,36,13.20
2007,05,30,05,37,13.20
2007,05,30,05,38,13.20
2007,05,30,05,39,13.20
2007,05,30,05,40,13.20
2007,05,30,05,41,13.20
2007,05,30,05,42,13.30
2007,05,30,05,43,13.30
2007,05,30,05,44,13.30
2007,05,30,05,45,13.30
2007,05,30,05,46,13.30
2007,05,30,05,47,13.30
2007,05,30,05,48,13.40
2007,05,30,05,49,13.50
2007,05,30,05,50,13.50
2007,05,30,05,51,13.60
2007,05,30,05,52,13.60
2007,05,30,05,53,13.60
2007,05,30,05,54,13.60
2007,05,30,05,55,13.60
2007,05,30,05,56,13.70
2007,05,30,05,57,13.70
2007,05,30,05,58,13.70
2007,05,30,05,59,13.70
2007,05,30,06,00,13.80
2007,05,30,06,01,13.80
2007,05,30,06,02,13.90
2007,05,30,06,03,13.90
2007,05,30,06,04,13.90
2007,05,30,06,05,14.00
2007,05,30,06,06,14.00
2007,05,30,06,07,14.10
2007,05,30,06,08,14.10
2007,05,30,06,09,14.10
2007,05,30,06,10,14.10
2007,05,30,06,11,14.10
2007,05,30,06,12,14.10
2007,05,30,06,13,14.10
2007,05,30,06,14,14.20
2007,05,30,06,15,14.20
2007,05,30,06,16,14.30
2007,05,30,06,17,14.40
2007,05,30,06,18,14.40
2007,05,30,06,19,14.40
2007,05,30,06,20,14.50
2007,05,30,06,21,14.50
2007,05,30,06,22,14.60
2007,05,30,06,23,14.60
2007,05,30,06,24,14.60
2007,05,30,06,25,14.60
2007,05,30,06,26,14.60
2007,05,30,06,27,14.60
2007,05,30,06,28,14.60
2007,05,30,06,29,14.60
2007,05,30,06,30,14.60
2007,05,30,06,31,14.50
2007,05,30,06,32,14.50
2007,05,30,06,33,14.50
2007,05,30,06,34,14.50
2007,05,30,06,35,14.40
2007,05,30,06,36,14.40
2007,05,30,06,37,14.40
2007,05,30,06,38,14.50
2007,05,30,06,39,14.50
2007,05,30,06,40,14.50
2007,05,30,06,41,14.60
2007,05,30,06,42,14.60
2007,05,30,06,43,14.60
2007,05,30,06,44,14.60
2007,05,30,06,45,14.60
2007,05,30,06,46,14.60
2007,05,30,06,47,14.60
2007,05,30,06,48,14.60
2007,05,30,06,49,14.70
2007,05,30,06,50,14.70
2007,05,30,06,51,14.70
2007,05,30,06,52,14.70
2007,05,30,06,53,14.70
2007,05,30,06,54,14.70
2007,05,30,06,55,14.70
2007,05,30,06,56,14.70
2007,05,30,06,57,14.70
2007,05,30,06,58,14.70
2007,05,30,06,59,14.70
2007,05,30,07,00,14.70
2007,05,30,07,01,14.80
2007,05,30,07,02,14.80
2007,05,30,07,03,14.80
2007,05,30,07,04,14.80
2007,05,30,07,05,14.80
2007,05,30,07,06,14.80
2007,05,30,07,07,14.80
2007,05,30,07,08,14.80
2007,05,30,07,09,14.90
2007,05,30,07,10,14.90
2007,05,30,07,11,14.90
2007,05,30,07,12,14.90
2007,05,30,07,13,15.00
2007,05,30,07,14,15.00
2007,05,30,07,15,15.00
2007,05,30,07,16,15.00
2007,05,30,07,17,15.00
2007,05,30,07,18,15.00
2007,05,30,07,19,15.00
2007,05,30,07,20,15.00
2007,05,30,07,21,15.00
2007,05,30,07,22,15.10
2007,05,30,07,23,15.20
2007,05,30,07,24,15.20
2007,05,30,07,25,15.20
2007,05,30,07,26,15.30
2007,05,30,07,27,15.30
2007,05,30,07,28,15.30
2007,05,30,07,29,15.30
2007,05,30,07,30,15.40
2007,05,30,07,31,15.40
2007,05,30,07,32,15.50
2007,05,30,07,33,15.50
2007,05,30,07,34,15.50
2007,05,30,07,35,15.60
2007,05,30,07,36,15.60
2007,05,30,07,37,15.70
2007,05,30,07,38,15.80
2007,05,30,07,39,15.80
2007,05,30,07,40,15.90
2007,05,30,07,41,15.90
2007,05,30,07,42,16.00
2007,05,30,07,43,16.10
2007,05,30,07,44,16.10
2007,05,30,07,45,16.30
2007,05,30,07,46,16.40
2007,05,30,07,47,16.50
2007,05,30,07,48,16.60
2007,05,30,07,49,16.70
2007,05,30,07,50,16.80
2007,05,30,07,51,16.80
2007,05,30,07,52,16.90
2007,05,30,07,53,17.00
2007,05,30,07,54,17.10
2007,05,30,07,55,17.10
2007,05,30,07,56,17.20
2007,05,30,07,57,17.20
2007,05,30,07,58,17.30
2007,05,30,07,59,17.30
2007,05,30,08,00,17.40
2007,05,30,08,01,17.40
2007,05,30,08,02,17.40
2007,05,30,08,03,17.40
2007,05,30,08,04,17.40
2007,05,30,08,05,17.50
2007,05,30,08,06,17.50
2007,05,30,08,07,17.60
2007,05,30,08,08,17.60
2007,05,30,08,09,17.60
2007,05,30,08,10,17.70
2007,05,30,08,11,17.70
2007,05,30,08,12,17.60
2007,05,30,08,13,17.60
2007,05,30,08,14,17.60
2007,05,30,08,15,17.60
2007,05,30,08,16,17.70
2007,05,30,08,17,17.70
2007,05,30,08,18,17.70
2007,05,30,08,19,17.70
2007,05,30,08,20,17.70
2007,05,30,08,21,17.70
2007,05,30,08,22,17.70
2007,05,30,08,23,17.70
2007,05,30,08,24,17.70
2007,05,30,08,25,17.70
2007,05,30,08,26,17.70
2007,05,30,08,27,17.70
2007,05,30,08,28,17.70
2007,05,30,08,29,17.70
2007,05,30,08,30,17.80
2007,05,30,08,31,17.80
2007,05,30,08,32,17.70
2007,05,30,08,33,17.60
2007,05,30,08,34,17.60
2007,05,30,08,35,17.60
2007,05,30,08,36,17.60
2007,05,30,08,37,17.60
2007,05,30,08,38,17.70
2007,05,30,08,39,17.80
2007,05,30,08,40,17.80
2007,05,30,08,41,17.80
2007,05,30,08,42,17.80
2007,05,30,08,43,17.80
2007,05,30,08,44,17.80
2007,05,30,08,45,17.80
2007,05,30,08,46,17.80
2007,05,30,08,47,17.80
2007,05,30,08,48,17.80
2007,05,30,08,49,17.80
2007,05,30,08,50,17.90
2007,05,30,08,51,17.80
2007,05,30,08,52,17.90
2007,05,30,08,53,17.90
2007,05,30,08,54,17.90
2007,05,30,08,55,17.90
2007,05,30,08,56,17.90
2007,05,30,08,57,18.00
2007,05,30,08,58,18.00
2007,05,30,08,59,18.00
2007,05,30,09,00,18.00
2007,05,30,09,01,18.10
2007,05,30,09,02,18.10
2007,05,30,09,03,18.20
2007,05,30,09,04,18.20
2007,05,30,09,05,18.30
2007,05,30,09,06,18.30
2007,05,30,09,07,18.40
2007,05,30,09,08,18.40
2007,05,30,09,09,18.40
2007,05,30,09,10,18.50
2007,05,30,09,11,18.50
2007,05,30,09,12,18.50
2007,05,30,09,13,18.60
2007,05,30,09,14,18.60
2007,05,30,09,15,18.70
2007,05,30,09,16,18.70
2007,05,30,09,17,18.80
2007,05,30,09,18,18.80
2007,05,30,09,19,18.80
2007,05,30,09,20,18.90
2007,05,30,09,21,18.90
2007,05,30,09,22,19.00
2007,05,30,09,23,19.00
2007,05,30,09,24,19.00
2007,05,30,09,25,19.10
2007,05,30,09,26,19.10
2007,05,30,09,27,19.20
2007,05,30,09,28,19.20
2007,05,30,09,29,19.30
2007,05,30,09,30,19.30
2007,05,30,09,31,19.40
2007,05,30,09,32,19.50
2007,05,30,09,33,19.50
2007,05,30,09,34,19.40
2007,05,30,09,35,19.40
2007,05,30,09,36,19.40
2007,05,30,09,37,19.40
2007,05,30,09,38,19.40
2007,05,30,09,39,19.40
2007,05,30,09,40,19.50
2007,05,30,09,41,19.50
2007,05,30,09,42,19.60
2007,05,30,09,43,19.60
2007,05,30,09,44,19.60
2007,05,30,09,45,19.70
2007,05,30,09,46,19.70
2007,05,30,09,47,19.80
2007,05,30,09,48,19.80
2007,05,30,09,49,19.80
2007,05,30,09,50,19.80
2007,05,30,09,51,19.80
2007,05,30,09,52,19.80
2007,05,30,09,53,19.90
2007,05,30,09,54,20.00
2007,05,30,09,55,20.00
2007,05,30,09,56,20.10
2007,05,30,09,57,20.20
2007,05,30,09,58,20.20
2007,05,30,09,59,20.30
2007,05,30,10,00,20.30
2007,05,30,10,01,20.40
2007,05,30,10,02,20.40
2007,05,30,10,03,20.50
2007,05,30,10,04,20.50
2007,05,30,10,05,20.60
2007,05,30,10,06,20.70
2007,05,30,10,07,20.80
2007,05,30,10,08,20.90
2007,05,30,10,09,20.90
2007,05,30,10,10,20.90
2007,05,30,10,11,20.90
2007,05,30,10,12,20.90
2007,05,30,10,13,20.90
2007,05,30,10,14,20.80
2007,05,30,10,15,20.80
2007,05,30,10,16,20.90
2007,05,30,10,17,20.90
2007,05,30,10,18,21.00
2007,05,30,10,19,20.90
2007,05,30,10,20,20.90
2007,05,30,10,21,20.80
2007,05,30,10,22,20.80
2007,05,30,10,23,20.70
2007,05,30,10,24,20.70
2007,05,30,10,25,20.70
2007,05,30,10,26,20.70
2007,05,30,10,27,20.80
2007,05,30,10,28,20.90
2007,05,30,10,29,21.00
2007,05,30,10,30,21.10
2007,05,30,10,31,21.20
2007,05,30,10,32,21.20
2007,05,30,10,33,21.20
2007,05,30,10,34,21.20
2007,05,30,10,35,21.20
2007,05,30,10,36,21.20
2007,05,30,10,37,21.30
2007,05,30,10,38,21.30
2007,05,30,10,39,21.30
2007,05,30,10,40,21.30
2007,05,30,10,41,21.20
2007,05,30,10,42,21.20
2007,05,30,10,43,21.20
2007,05,30,10,44,21.20
2007,05,30,10,45,21.20
2007,05,30,10,46,21.10
2007,05,30,10,47,20.90
2007,05,30,10,48,20.80
2007,05,30,10,49,20.80
2007,05,30,10,50,20.80
2007,05,30,10,51,20.80
2007,05,30,10,52,20.80
2007,05,30,10,53,20.90
2007,05,30,10,54,20.90
2007,05,30,10,55,20.90
2007,05,30,10,56,20.90
2007,05,30,10,57,20.90
2007,05,30,10,58,20.90
2007,05,30,10,59,20.90
2007,05,30,11,00,20.90
2007,05,30,11,01,20.90
2007,05,30,11,02,20.80
2007,05,30,11,03,20.70
2007,05,30,11,04,20.60
2007,05,30,11,05,20.60
2007,05,30,11,06,20.70
2007,05,30,11,07,20.80
2007,05,30,11,08,20.80
2007,05,30,11,09,20.90
2007,05,30,11,10,20.90
2007,05,30,11,11,20.90
2007,05,30,11,12,20.80
2007,05,30,11,13,20.80
2007,05,30,11,14,20.70
2007,05,30,11,15,20.60
2007,05,30,11,16,20.60
2007,05,30,11,17,20.60
2007,05,30,11,18,20.70
2007,05,30,11,19,20.80
2007,05,30,11,20,20.90
2007,05,30,11,21,20.90
2007,05,30,11,22,21.00
2007,05,30,11,23,21.10
2007,05,30,11,24,21.20
2007,05,30,11,25,21.10
2007,05,30,11,26,21.10
2007,05,30,11,27,21.10
2007,05,30,11,28,21.00
2007,05,30,11,29,21.00
2007,05,30,11,30,21.00
2007,05,30,11,31,21.10
2007,05,30,11,32,21.10
2007,05,30,11,33,21.20
2007,05,30,11,34,21.30
2007,05,30,11,35,21.30
2007,05,30,11,36,21.30
2007,05,30,11,37,21.40
2007,05,30,11,38,21.40
2007,05,30,11,39,21.40
2007,05,30,11,40,21.40
2007,05,30,11,41,21.40
2007,05,30,11,42,21.40
2007,05,30,11,43,21.40
2007,05,30,11,44,21.30
2007,05,30,11,45,21.30
2007,05,30,11,46,21.30
2007,05,30,11,47,21.30
2007,05,30,11,48,21.30
2007,05,30,11,49,21.30
2007,05,30,11,50,21.40
2007,05,30,11,51,21.40
2007,05,30,11,52,21.30
2007,05,30,11,53,21.30
2007,05,30,11,54,21.20
2007,05,30,11,55,21.30
2007,05,30,11,56,21.30
2007,05,30,11,57,21.30
2007,05,30,11,58,21.30
2007,05,30,11,59,21.30
2007,05,30,12,00,21.40
2007,05,30,12,01,21.40
2007,05,30,12,02,21.40
2007,05,30,12,03,21.40
2007,05,30,12,04,21.50
2007,05,30,12,05,21.40
2007,05,30,12,06,21.40
2007,05,30,12,07,21.40
2007,05,30,12,08,21.50
2007,05,30,12,09,21.60
2007,05,30,12,10,21.60
2007,05,30,12,11,21.60
2007,05,30,12,12,21.50
2007,05,30,12,13,21.50
2007,05,30,12,14,21.40
2007,05,30,12,15,21.40
2007,05,30,12,16,21.50
2007,05,30,12,17,21.60
2007,05,30,12,18,21.60
2007,05,30,12,19,21.60
2007,05,30,12,20,21.60
2007,05,30,12,21,21.70
2007,05,30,12,22,21.70
2007,05,30,12,23,21.80
2007,05,30,12,24,21.80
2007,05,30,12,25,21.80
2007,05,30,12,26,21.90
2007,05,30,12,27,22.00
2007,05,30,12,28,22.00
2007,05,30,12,29,21.90
2007,05,30,12,30,21.90
2007,05,30,12,31,22.00
2007,05,30,12,32,22.10
2007,05,30,12,33,22.20
2007,05,30,12,34,22.20
2007,05,30,12,35,22.20
2007,05,30,12,36,22.10
2007,05,30,12,37,22.10
2007,05,30,12,38,22.00
2007,05,30,12,39,22.00
2007,05,30,12,40,22.00
2007,05,30,12,41,22.00
2007,05,30,12,42,22.00
2007,05,30,12,43,22.00
2007,05,30,12,44,22.10
2007,05,30,12,45,22.20
2007,05,30,12,46,22.20
2007,05,30,12,47,22.20
2007,05,30,12,48,22.20
2007,05,30,12,49,22.20
2007,05,30,12,50,22.20
2007,05,30,12,51,22.30
2007,05,30,12,52,22.50
2007,05,30,12,53,22.60
2007,05,30,12,54,22.80
2007,05,30,12,55,23.00
2007,05,30,12,56,23.10
2007,05,30,12,57,23.20
2007,05,30,12,58,23.10
2007,05,30,12,59,23.10
2007,05,30,13,00,23.10
2007,05,30,13,01,22.90
2007,05,30,13,02,22.80
2007,05,30,13,03,22.80
2007,05,30,13,04,22.90
2007,05,30,13,05,22.90
2007,05,30,13,06,22.90
2007,05,30,13,07,22.90
2007,05,30,13,08,22.90
2007,05,30,13,09,22.90
2007,05,30,13,10,22.90
2007,05,30,13,11,23.00
2007,05,30,13,12,22.90
2007,05,30,13,13,22.90
2007,05,30,13,14,22.80
2007,05,30,13,15,22.70
2007,05,30,13,16,22.60
2007,05,30,13,17,22.60
2007,05,30,13,18,22.70
2007,05,30,13,19,22.80
2007,05,30,13,20,22.80
2007,05,30,13,21,22.80
2007,05,30,13,22,22.60
2007,05,30,13,23,22.60
2007,05,30,13,24,22.70
2007,05,30,13,25,22.70
2007,05,30,13,26,22.70
2007,05,30,13,27,22.80
2007,05,30,13,28,22.80
2007,05,30,13,29,23.00
2007,05,30,13,30,23.10
2007,05,30,13,31,23.10
2007,05,30,13,32,23.10
2007,05,30,13,33,23.10
2007,05,30,13,34,23.20
2007,05,30,13,35,23.30
2007,05,30,13,36,23.30
2007,05,30,13,37,23.30
2007,05,30,13,38,23.30
2007,05,30,13,39,23.30
2007,05,30,13,40,23.30
2007,05,30,13,41,23.30
2007,05,30,13,42,23.30
2007,05,30,13,43,23.40
2007,05,30,13,44,23.50
2007,05,30,13,45,23.50
2007,05,30,13,46,23.60
2007,05,30,13,47,23.70
2007,05,30,13,48,23.70
2007,05,30,13,49,23.80
2007,05,30,13,50,23.70
2007,05,30,13,51,23.60
2007,05,30,13,52,23.60
2007,05,30,13,53,23.60
2007,05,30,13,54,23.50
2007,05,30,13,55,23.40
2007,05,30,13,56,23.20
2007,05,30,13,57,23.10
2007,05,30,13,58,23.10
2007,05,30,13,59,23.10
2007,05,30,14,00,23.20
2007,05,30,14,01,23.30
2007,05,30,14,02,23.40
2007,05,30,14,03,23.50
2007,05,30,14,04,23.60
2007,05,30,14,05,23.60
2007,05,30,14,06,23.70
2007,05,30,14,07,23.70
2007,05,30,14,08,23.80
2007,05,30,14,09,23.80
2007,05,30,14,10,23.90
2007,05,30,14,11,24.00
2007,05,30,14,12,24.10
2007,05,30,14,13,24.10
2007,05,30,14,14,24.10
2007,05,30,14,15,24.10
2007,05,30,14,16,24.10
2007,05,30,14,17,24.10
2007,05,30,14,18,24.00
2007,05,30,14,19,24.00
2007,05,30,14,20,23.80
2007,05,30,14,21,23.60
2007,05,30,14,22,23.50
2007,05,30,14,23,23.40
2007,05,30,14,24,23.20
2007,05,30,14,25,23.10
2007,05,30,14,26,22.90
2007,05,30,14,27,22.90
2007,05,30,14,28,23.00
2007,05,30,14,29,23.10
2007,05,30,14,30,23.20
2007,05,30,14,31,23.20
2007,05,30,14,32,23.10
2007,05,30,14,33,23.10
2007,05,30,14,34,23.20
2007,05,30,14,35,23.30
2007,05,30,14,36,23.30
2007,05,30,14,37,23.30
2007,05,30,14,38,23.40
2007,05,30,14,39,23.40
2007,05,30,14,40,23.50
2007,05,30,14,41,23.60
2007,05,30,14,42,23.60
2007,05,30,14,43,23.50
2007,05,30,14,44,23.40
2007,05,30,14,45,23.40
2007,05,30,14,46,23.30
2007,05,30,14,47,23.40
2007,05,30,14,48,23.40
2007,05,30,14,49,23.40
2007,05,30,14,50,23.30
2007,05,30,14,51,23.50
2007,05,30,14,52,23.60
2007,05,30,14,53,23.80
2007,05,30,14,54,24.00
2007,05,30,14,55,24.10
2007,05,30,14,56,24.20
2007,05,30,14,57,24.30
2007,05,30,14,58,24.30
2007,05,30,14,59,24.30
2007,05,30,15,00,24.20
2007,05,30,15,01,24.20
2007,05,30,15,02,24.20
2007,05,30,15,03,24.20
2007,05,30,15,04,24.30
2007,05,30,15,05,24.30
2007,05,30,15,06,24.40
2007,05,30,15,07,24.50
2007,05,30,15,08,24.50
2007,05,30,15,09,24.40
2007,05,30,15,10,24.50
2007,05,30,15,11,24.70
2007,05,30,15,12,24.80
2007,05,30,15,13,25.00
2007,05,30,15,14,25.10
2007,05,30,15,15,25.20
2007,05,30,15,16,25.30
2007,05,30,15,17,25.50
2007,05,30,15,18,25.60
2007,05,30,15,19,25.70
2007,05,30,15,20,25.70
2007,05,30,15,21,25.70
2007,05,30,15,22,25.70
2007,05,30,15,23,25.70
2007,05,30,15,24,25.70
2007,05,30,15,25,25.60
2007,05,30,15,26,25.60
2007,05,30,15,27,25.50
2007,05,30,15,28,25.40
2007,05,30,15,29,25.30
2007,05,30,15,30,25.30
2007,05,30,15,31,25.30
2007,05,30,15,32,25.30
2007,05,30,15,33,25.40
2007,05,30,15,34,25.50
2007,05,30,15,35,25.50
2007,05,30,15,36,25.40
2007,05,30,15,37,25.10
2007,05,30,15,38,24.90
2007,05,30,15,39,24.80
2007,05,30,15,40,24.80
2007,05,30,15,41,24.90
2007,05,30,15,42,25.10
2007,05,30,15,43,25.20
2007,05,30,15,44,25.40
2007,05,30,15,45,25.60
2007,05,30,15,46,25.80
2007,05,30,15,47,25.90
2007,05,30,15,48,26.00
2007,05,30,15,49,26.10
2007,05,30,15,50,26.20
2007,05,30,15,51,26.20
2007,05,30,15,52,26.30
2007,05,30,15,53,26.30
2007,05,30,15,54,26.40
2007,05,30,15,55,26.40
2007,05,30,15,56,26.30
2007,05,30,15,57,26.10
2007,05,30,15,58,25.90
2007,05,30,15,59,25.90
2007,05,30,16,00,25.80
2007,05,30,16,01,25.80
2007,05,30,16,02,25.90
2007,05,30,16,03,25.90
2007,05,30,16,04,26.00
2007,05,30,16,05,26.10
2007,05,30,16,06,26.10
2007,05,30,16,07,26.00
2007,05,30,16,08,26.00
2007,05,30,16,09,26.10
2007,05,30,16,10,26.10
2007,05,30,16,11,26.20
2007,05,30,16,12,26.20
2007,05,30,16,13,26.10
2007,05,30,16,14,26.10
2007,05,30,16,15,26.10
2007,05,30,16,16,26.20
2007,05,30,16,17,26.10
2007,05,30,16,18,26.00
2007,05,30,16,19,25.90
2007,05,30,16,20,25.90
2007,05,30,16,21,25.90
2007,05,30,16,22,26.00
2007,05,30,16,23,26.00
2007,05,30,16,24,26.10
2007,05,30,16,25,26.10
2007,05,30,16,26,26.10
2007,05,30,16,27,26.10
2007,05,30,16,28,26.20
2007,05,30,16,29,26.30
2007,05,30,16,30,26.30
2007,05,30,16,31,26.30
2007,05,30,16,32,26.40
2007,05,30,16,33,26.40
2007,05,30,16,34,26.40
2007,05,30,16,35,26.40
2007,05,30,16,36,26.40
2007,05,30,16,37,26.40
2007,05,30,16,38,26.30
2007,05,30,16,39,26.30
2007,05,30,16,40,26.20
2007,05,30,16,41,26.10
2007,05,30,16,42,26.00
2007,05,30,16,43,25.90
2007,05,30,16,44,25.90
2007,05,30,16,45,25.80
2007,05,30,16,46,25.70
2007,05,30,16,47,25.60
2007,05,30,16,48,25.50
2007,05,30,16,49,25.50
2007,05,30,16,50,25.40
2007,05,30,16,51,25.40
2007,05,30,16,52,25.30
2007,05,30,16,53,25.30
2007,05,30,16,54,25.20
2007,05,30,16,55,25.20
2007,05,30,16,56,25.10
2007,05,30,16,57,25.10
2007,05,30,16,58,25.10
2007,05,30,16,59,25.10
2007,05,30,17,00,25.00
2007,05,30,17,01,24.90
2007,05,30,17,02,24.80
2007,05,30,17,03,24.70
2007,05,30,17,04,24.60
2007,05,30,17,05,24.50
2007,05,30,17,06,24.40
2007,05,30,17,07,24.30
2007,05,30,17,08,24.30
2007,05,30,17,09,24.30
2007,05,30,17,10,24.30
2007,05,30,17,11,24.30
2007,05,30,17,12,24.30
2007,05,30,17,13,24.30
2007,05,30,17,14,24.30
2007,05,30,17,15,24.30
2007,05,30,17,16,24.30
2007,05,30,17,17,24.30
2007,05,30,17,18,24.30
2007,05,30,17,19,24.30